YYYY,MM,DD,YYYY,DOY,JD,HH,MM,SS,Jovicentric Range [AU],Jovicentric Range [Rj],Jovicentric Range [km],Velocity magnitude wrt Jupiter [km/s],Sun-Jupiter-Probe Angle [deg],Earth-Jupiter-Probe Angle [deg],Right Ascension wrt Jupiter Equator [deg],Declination wrt Jupiter Equator [deg]
1990,10,7,1990,280,2448171.5,0,0,0,5.607,11747.892,838775954.188,45.084,9.87,0.00,308.66,-0.39
1990,10,8,1990,281,2448172.5,0,0,0,5.587,11705.295,835734661.094,44.856,9.96,0.02,308.83,-0.39
1990,10,9,1990,282,2448173.5,0,0,0,5.566,11662.561,832683532.076,44.734,10.04,0.04,308.99,-0.38
1990,10,10,1990,283,2448174.5,0,0,0,5.546,11619.669,829621126.363,44.614,10.12,0.06,309.15,-0.38
1990,10,11,1990,284,2448175.5,0,0,0,5.525,11576.611,826546877.318,44.489,10.20,0.08,309.31,-0.37
1990,10,12,1990,285,2448176.5,0,0,0,5.505,11533.401,823461730.658,44.363,10.28,0.11,309.47,-0.36
1990,10,13,1990,286,2448177.5,0,0,0,5.484,11490.045,820366205.067,44.226,10.35,0.13,309.63,-0.36
1990,10,14,1990,287,2448178.5,0,0,0,5.463,11446.555,817261110.428,44.087,10.43,0.15,309.78,-0.35
1990,10,15,1990,288,2448179.5,0,0,0,5.442,11402.934,814146704.941,43.941,10.50,0.17,309.94,-0.35
1990,10,16,1990,289,2448180.5,0,0,0,5.421,11359.205,811024486.139,43.788,10.57,0.19,310.09,-0.34
1990,10,17,1990,290,2448181.5,0,0,0,5.400,11315.365,807894447.967,43.612,10.64,0.22,310.24,-0.34
1990,10,18,1990,291,2448182.5,0,0,0,5.379,11271.416,804756540.912,43.446,10.70,0.24,310.39,-0.33
1990,10,19,1990,292,2448183.5,0,0,0,5.358,11227.379,801612407.983,43.301,10.77,0.26,310.53,-0.33
1990,10,20,1990,293,2448184.5,0,0,0,5.337,11183.249,798461607.481,43.127,10.83,0.29,310.67,-0.32
1990,10,21,1990,294,2448185.5,0,0,0,5.316,11139.062,795306711.745,42.951,10.89,0.31,310.82,-0.32
1990,10,22,1990,295,2448186.5,0,0,0,5.295,11094.824,792148273.763,42.767,10.95,0.33,310.96,-0.31
1990,10,23,1990,296,2448187.5,0,0,0,5.274,11050.548,788987053.768,42.581,11.00,0.36,311.09,-0.30
1990,10,24,1990,297,2448188.5,0,0,0,5.253,11006.246,785823980.439,42.388,11.06,0.38,311.23,-0.30
1990,10,25,1990,298,2448189.5,0,0,0,5.232,10961.928,782659735.471,42.192,11.11,0.41,311.36,-0.29
1990,10,26,1990,299,2448190.5,0,0,0,5.211,10917.604,779495119.795,41.994,11.16,0.44,311.49,-0.29
1990,10,27,1990,300,2448191.5,0,0,0,5.189,10873.283,776330678.266,41.790,11.21,0.46,311.62,-0.28
1990,10,28,1990,301,2448192.5,0,0,0,5.168,10828.977,773167319.495,41.584,11.25,0.49,311.75,-0.28
1990,10,29,1990,302,2448193.5,0,0,0,5.147,10784.696,770005702.209,41.372,11.30,0.52,311.87,-0.27
1990,10,30,1990,303,2448194.5,0,0,0,5.126,10740.449,766846547.979,41.159,11.34,0.55,312.00,-0.27
1990,10,31,1990,304,2448195.5,0,0,0,5.105,10696.247,763690651.513,40.941,11.38,0.57,312.12,-0.26
1990,11,1,1990,305,2448196.5,0,0,0,5.084,10652.100,760538631.321,40.722,11.42,0.60,312.24,-0.25
1990,11,2,1990,306,2448197.5,0,0,0,5.063,10608.017,757391171.399,40.502,11.45,0.63,312.35,-0.25
1990,11,3,1990,307,2448198.5,0,0,0,5.042,10564.003,754248676.551,40.278,11.49,0.66,312.47,-0.24
1990,11,4,1990,308,2448199.5,0,0,0,5.021,10520.068,751111817.518,40.054,11.52,0.70,312.58,-0.24
1990,11,5,1990,309,2448200.5,0,0,0,5.000,10476.221,747981223.748,39.825,11.55,0.73,312.69,-0.23
1990,11,6,1990,310,2448201.5,0,0,0,4.979,10432.470,744857491.259,39.597,11.58,0.76,312.80,-0.23
1990,11,7,1990,311,2448202.5,0,0,0,4.958,10388.824,741741224.141,39.365,11.60,0.79,312.91,-0.22
1990,11,8,1990,312,2448203.5,0,0,0,4.937,10345.289,738632949.371,39.133,11.63,0.83,313.01,-0.22
1990,11,9,1990,313,2448204.5,0,0,0,4.917,10301.874,735533193.526,38.902,11.65,0.86,313.12,-0.21
1990,11,10,1990,314,2448205.5,0,0,0,4.896,10258.582,732442213.928,38.668,11.67,0.90,313.22,-0.20
1990,11,11,1990,315,2448206.5,0,0,0,4.875,10215.421,729360645.722,38.435,11.69,0.94,313.32,-0.20
1990,11,12,1990,316,2448207.5,0,0,0,4.855,10172.397,726288815.453,38.199,11.70,0.98,313.41,-0.19
1990,11,13,1990,317,2448208.5,0,0,0,4.834,10129.517,723227217.425,37.966,11.72,1.02,313.51,-0.19
1990,11,14,1990,318,2448209.5,0,0,0,4.814,10086.785,720176236.427,37.729,11.73,1.06,313.60,-0.18
1990,11,15,1990,319,2448210.5,0,0,0,4.794,10044.207,717136315.723,37.494,11.74,1.10,313.69,-0.18
1990,11,16,1990,320,2448211.5,0,0,0,4.774,10001.790,714107789.368,37.260,11.75,1.14,313.78,-0.17
1990,11,17,1990,321,2448212.5,0,0,0,4.753,9959.533,711090760.472,37.026,11.76,1.19,313.87,-0.17
1990,11,18,1990,322,2448213.5,0,0,0,4.733,9917.444,708085681.806,36.793,11.76,1.23,313.96,-0.16
1990,11,19,1990,323,2448214.5,0,0,0,4.713,9875.525,705092707.470,36.559,11.76,1.28,314.04,-0.16
1990,11,20,1990,324,2448215.5,0,0,0,4.693,9833.780,702112194.976,36.328,11.77,1.33,314.12,-0.15
1990,11,21,1990,325,2448216.5,0,0,0,4.673,9792.212,699144339.489,36.094,11.77,1.38,314.20,-0.15
1990,11,22,1990,326,2448217.5,0,0,0,4.654,9750.826,696189464.403,35.864,11.76,1.43,314.28,-0.14
1990,11,23,1990,327,2448218.5,0,0,0,4.634,9709.624,693247747.100,35.635,11.76,1.48,314.36,-0.14
1990,11,24,1990,328,2448219.5,0,0,0,4.614,9668.607,690319179.356,35.408,11.76,1.53,314.44,-0.13
1990,11,25,1990,329,2448220.5,0,0,0,4.595,9627.778,687404057.872,35.181,11.75,1.59,314.51,-0.13
1990,11,26,1990,330,2448221.5,0,0,0,4.576,9587.137,684502419.697,34.955,11.74,1.65,314.58,-0.12
1990,11,27,1990,331,2448222.5,0,0,0,4.556,9546.689,681614524.888,34.732,11.73,1.71,314.65,-0.12
1990,11,28,1990,332,2448223.5,0,0,0,4.537,9506.435,678740419.586,34.506,11.72,1.77,314.72,-0.11
1990,11,29,1990,333,2448224.5,0,0,0,4.518,9466.377,675880365.933,34.285,11.71,1.83,314.79,-0.11
1990,11,30,1990,334,2448225.5,0,0,0,4.499,9426.516,673034415.625,34.064,11.69,1.90,314.86,-0.10
1990,12,1,1990,335,2448226.5,0,0,0,4.480,9386.852,670202490.695,33.847,11.68,1.96,314.92,-0.10
1990,12,2,1990,336,2448227.5,0,0,0,4.461,9347.387,667384742.904,33.631,11.66,2.03,314.99,-0.09
1990,12,3,1990,337,2448228.5,0,0,0,4.442,9308.120,664581128.233,33.416,11.64,2.10,315.05,-0.09
1990,12,4,1990,338,2448229.5,0,0,0,4.424,9269.052,661791807.002,33.204,11.62,2.17,315.11,-0.08
1990,12,5,1990,339,2448230.5,0,0,0,4.405,9230.184,659016693.975,32.991,11.60,2.25,315.17,-0.08
1990,12,6,1990,340,2448231.5,0,0,0,4.387,9191.518,656255996.981,32.782,11.58,2.32,315.23,-0.07
1990,12,7,1990,341,2448232.5,0,0,0,4.368,9153.053,653509656.615,32.573,11.56,2.40,315.29,-0.07
1990,12,8,1990,342,2448233.5,0,0,0,4.350,9114.787,650777552.810,32.369,11.53,2.48,315.34,-0.06
1990,12,9,1990,343,2448234.5,0,0,0,4.332,9076.721,648059714.915,32.165,11.51,2.56,315.40,-0.06
1990,12,10,1990,344,2448235.5,0,0,0,4.314,9038.853,645356044.784,31.964,11.48,2.65,315.45,-0.05
1990,12,11,1990,345,2448236.5,0,0,0,4.296,9001.186,642666641.991,31.766,11.45,2.73,315.50,-0.05
1990,12,12,1990,346,2448237.5,0,0,0,4.278,8963.715,639991346.043,31.566,11.42,2.82,315.55,-0.05
1990,12,13,1990,347,2448238.5,0,0,0,4.260,8926.445,637330345.788,31.371,11.39,2.91,315.60,-0.04
1990,12,14,1990,348,2448239.5,0,0,0,4.243,8889.374,634683520.939,31.175,11.36,3.00,315.65,-0.04
1990,12,15,1990,349,2448240.5,0,0,0,4.225,8852.499,632050753.776,30.985,11.33,3.10,315.70,-0.03
1990,12,16,1990,350,2448241.5,0,0,0,4.207,8815.821,629431984.786,30.795,11.29,3.19,315.75,-0.03
1990,12,17,1990,351,2448242.5,0,0,0,4.190,8779.337,626827107.002,30.608,11.26,3.29,315.79,-0.02
1990,12,18,1990,352,2448243.5,0,0,0,4.173,8743.048,624236166.712,30.422,11.22,3.39,315.84,-0.02
1990,12,19,1990,353,2448244.5,0,0,0,4.156,8706.952,621658953.385,30.237,11.19,3.49,315.88,-0.01
1990,12,20,1990,354,2448245.5,0,0,0,4.138,8671.050,619095628.323,30.055,11.15,3.60,315.92,-0.01
1990,12,21,1990,355,2448246.5,0,0,0,4.121,8635.340,616546019.492,29.873,11.11,3.71,315.96,-0.01
1990,12,22,1990,356,2448247.5,0,0,0,4.104,8599.821,614010011.448,29.698,11.07,3.81,316.00,0.00
1990,12,23,1990,357,2448248.5,0,0,0,4.088,8564.490,611487451.662,29.521,11.03,3.93,316.04,0.00
1990,12,24,1990,358,2448249.5,0,0,0,4.071,8529.346,608978231.656,29.348,10.99,4.04,316.08,0.01
1990,12,25,1990,359,2448250.5,0,0,0,4.054,8494.388,606482342.697,29.176,10.94,4.15,316.12,0.01
1990,12,26,1990,360,2448251.5,0,0,0,4.037,8459.614,603999548.343,29.006,10.90,4.27,316.16,0.02
1990,12,27,1990,361,2448252.5,0,0,0,4.021,8425.026,601529993.116,28.838,10.86,4.39,316.19,0.02
1990,12,28,1990,362,2448253.5,0,0,0,4.005,8390.620,599073486.624,28.670,10.81,4.51,316.23,0.02
1990,12,29,1990,363,2448254.5,0,0,0,3.988,8356.396,596629945.753,28.507,10.77,4.63,316.26,0.03
1990,12,30,1990,364,2448255.5,0,0,0,3.972,8322.350,594199158.759,28.344,10.72,4.76,316.30,0.03
1990,12,31,1990,365,2448256.5,0,0,0,3.956,8288.482,591781049.677,28.185,10.67,4.88,316.33,0.04
1991,1,1,1991,1,2448257.5,0,0,0,3.940,8254.791,589375552.485,28.026,10.62,5.01,316.36,0.04
1991,1,2,1991,2,2448258.5,0,0,0,3.924,8221.274,586982497.214,27.869,10.57,5.14,316.39,0.04
1991,1,3,1991,3,2448259.5,0,0,0,3.908,8187.932,584601981.646,27.713,10.53,5.27,316.42,0.05
1991,1,4,1991,4,2448260.5,0,0,0,3.892,8154.764,582233813.498,27.557,10.47,5.40,316.45,0.05
1991,1,5,1991,5,2448261.5,0,0,0,3.876,8121.767,579877934.742,27.408,10.42,5.54,316.48,0.05
1991,1,6,1991,6,2448262.5,0,0,0,3.861,8088.939,577534075.989,27.257,10.37,5.67,316.51,0.06
1991,1,7,1991,7,2448263.5,0,0,0,3.845,8056.279,575202181.890,27.110,10.32,5.81,316.54,0.06
1991,1,8,1991,8,2448264.5,0,0,0,3.829,8023.784,572882162.042,26.963,10.27,5.95,316.56,0.07
1991,1,9,1991,9,2448265.5,0,0,0,3.814,7991.456,570573970.077,26.820,10.21,6.09,316.59,0.07
1991,1,10,1991,10,2448266.5,0,0,0,3.799,7959.289,568277348.337,26.676,10.16,6.23,316.62,0.07
1991,1,11,1991,11,2448267.5,0,0,0,3.783,7927.285,565992286.344,26.533,10.10,6.37,316.64,0.08
1991,1,12,1991,12,2448268.5,0,0,0,3.768,7895.442,563718750.213,26.395,10.05,6.51,316.66,0.08
1991,1,13,1991,13,2448269.5,0,0,0,3.753,7863.756,561456433.113,26.256,9.99,6.66,316.69,0.08
1991,1,14,1991,14,2448270.5,0,0,0,3.738,7832.227,559205315.648,26.122,9.93,6.80,316.71,0.09
1991,1,15,1991,15,2448271.5,0,0,0,3.723,7800.853,556965279.726,25.986,9.88,6.95,316.73,0.09
1991,1,16,1991,16,2448272.5,0,0,0,3.708,7769.631,554736148.647,25.854,9.82,7.09,316.76,0.10
1991,1,17,1991,17,2448273.5,0,0,0,3.693,7738.564,552517986.759,25.721,9.76,7.24,316.78,0.10
1991,1,18,1991,18,2448274.5,0,0,0,3.679,7707.648,550310644.162,25.590,9.70,7.39,316.80,0.10
1991,1,19,1991,19,2448275.5,0,0,0,3.664,7676.883,548114116.027,25.462,9.64,7.54,316.82,0.11
1991,1,20,1991,20,2448276.5,0,0,0,3.649,7646.266,545928075.015,25.334,9.58,7.69,316.84,0.11
1991,1,21,1991,21,2448277.5,0,0,0,3.635,7615.795,543752528.967,25.210,9.52,7.83,316.86,0.11
1991,1,22,1991,22,2448278.5,0,0,0,3.620,7585.469,541587323.611,25.084,9.46,7.98,316.88,0.12
1991,1,23,1991,23,2448279.5,0,0,0,3.606,7555.286,539432312.968,24.964,9.40,8.13,316.89,0.12
1991,1,24,1991,24,2448280.5,0,0,0,3.592,7525.246,537287510.322,24.840,9.34,8.28,316.91,0.12
1991,1,25,1991,25,2448281.5,0,0,0,3.577,7495.347,535152790.910,24.720,9.27,8.43,316.93,0.13
1991,1,26,1991,26,2448282.5,0,0,0,3.563,7465.589,533028154.072,24.602,9.21,8.58,316.95,0.13
1991,1,27,1991,27,2448283.5,0,0,0,3.549,7435.968,530913254.533,24.484,9.15,8.73,316.96,0.13
1991,1,28,1991,28,2448284.5,0,0,0,3.535,7406.484,528808115.522,24.370,9.08,8.88,316.98,0.14
1991,1,29,1991,29,2448285.5,0,0,0,3.521,7377.133,526712554.751,24.255,9.02,9.03,316.99,0.14
1991,1,30,1991,30,2448286.5,0,0,0,3.507,7347.915,524626470.492,24.144,8.96,9.18,317.01,0.14
1991,1,31,1991,31,2448287.5,0,0,0,3.493,7318.830,522549835.823,24.030,8.89,9.33,317.02,0.15
1991,2,1,1991,32,2448288.5,0,0,0,3.479,7289.876,520482578.440,23.919,8.83,9.47,317.04,0.15
1991,2,2,1991,33,2448289.5,0,0,0,3.465,7261.054,518424714.480,23.810,8.76,9.62,317.05,0.15
1991,2,3,1991,34,2448290.5,0,0,0,3.452,7232.358,516375914.234,23.702,8.69,9.77,317.06,0.16
1991,2,4,1991,35,2448291.5,0,0,0,3.438,7203.790,514336221.481,23.596,8.63,9.91,317.08,0.16
1991,2,5,1991,36,2448292.5,0,0,0,3.425,7175.347,512305440.782,23.489,8.56,10.06,317.09,0.16
1991,2,6,1991,37,2448293.5,0,0,0,3.411,7147.028,510283514.572,23.387,8.49,10.20,317.10,0.17
1991,2,7,1991,38,2448294.5,0,0,0,3.398,7118.832,508270367.568,23.281,8.42,10.34,317.11,0.17
1991,2,8,1991,39,2448295.5,0,0,0,3.384,7090.758,506265968.230,23.179,8.36,10.48,317.12,0.17
1991,2,9,1991,40,2448296.5,0,0,0,3.371,7062.807,504270323.569,23.077,8.29,10.62,317.14,0.17
1991,2,10,1991,41,2448297.5,0,0,0,3.358,7034.975,502283110.970,22.978,8.22,10.76,317.15,0.18
1991,2,11,1991,42,2448298.5,0,0,0,3.344,7007.260,500304364.164,22.880,8.15,10.89,317.16,0.18
1991,2,12,1991,43,2448299.5,0,0,0,3.331,6979.661,498333866.782,22.782,8.08,11.03,317.17,0.18
1991,2,13,1991,44,2448300.5,0,0,0,3.318,6952.178,496371591.709,22.688,8.01,11.16,317.18,0.19
1991,2,14,1991,45,2448301.5,0,0,0,3.305,6924.808,494417412.927,22.591,7.94,11.29,317.19,0.19
1991,2,15,1991,46,2448302.5,0,0,0,3.292,6897.551,492471345.868,22.497,7.87,11.42,317.19,0.19
1991,2,16,1991,47,2448303.5,0,0,0,3.279,6870.408,490533390.555,22.402,7.80,11.55,317.20,0.20
1991,2,17,1991,48,2448304.5,0,0,0,3.266,6843.375,488603264.319,22.311,7.73,11.67,317.21,0.20
1991,2,18,1991,49,2448305.5,0,0,0,3.253,6816.451,486681000.280,22.220,7.66,11.80,317.22,0.20
1991,2,19,1991,50,2448306.5,0,0,0,3.240,6789.635,484766390.980,22.129,7.59,11.92,317.23,0.20
1991,2,20,1991,51,2448307.5,0,0,0,3.228,6762.927,482859451.326,22.042,7.52,12.04,317.24,0.21
1991,2,21,1991,52,2448308.5,0,0,0,3.215,6736.323,480960021.322,21.952,7.44,12.15,317.24,0.21
1991,2,22,1991,53,2448309.5,0,0,0,3.202,6709.826,479068166.532,21.865,7.37,12.27,317.25,0.21
1991,2,23,1991,54,2448310.5,0,0,0,3.190,6683.435,477183875.454,21.776,7.30,12.38,317.26,0.22
1991,2,24,1991,55,2448311.5,0,0,0,3.177,6657.146,475306903.090,21.692,7.23,12.49,317.26,0.22
1991,2,25,1991,56,2448312.5,0,0,0,3.165,6630.960,473437255.532,21.607,7.16,12.60,317.27,0.22
1991,2,26,1991,57,2448313.5,0,0,0,3.152,6604.873,471574723.943,21.524,7.08,12.70,317.27,0.22
1991,2,27,1991,58,2448314.5,0,0,0,3.140,6578.886,469719335.783,21.443,7.01,12.80,317.28,0.23
1991,2,28,1991,59,2448315.5,0,0,0,3.128,6552.997,467870884.881,21.360,6.94,12.90,317.29,0.23
1991,3,1,1991,60,2448316.5,0,0,0,3.115,6527.206,466029466.556,21.280,6.86,12.99,317.29,0.23
1991,3,2,1991,61,2448317.5,0,0,0,3.103,6501.513,464195044.906,21.197,6.79,13.09,317.30,0.24
1991,3,3,1991,62,2448318.5,0,0,0,3.091,6475.916,462367422.511,21.120,6.71,13.18,317.30,0.24
1991,3,4,1991,63,2448319.5,0,0,0,3.079,6450.413,460546576.797,21.041,6.64,13.27,317.30,0.24
1991,3,5,1991,64,2448320.5,0,0,0,3.066,6425.002,458732320.761,20.964,6.57,13.35,317.31,0.24
1991,3,6,1991,65,2448321.5,0,0,0,3.054,6399.685,456924703.219,20.889,6.49,13.43,317.31,0.25
1991,3,7,1991,66,2448322.5,0,0,0,3.042,6374.457,455123501.800,20.813,6.42,13.51,317.32,0.25
1991,3,8,1991,67,2448323.5,0,0,0,3.030,6349.321,453328854.210,20.738,6.34,13.58,317.32,0.25
1991,3,9,1991,68,2448324.5,0,0,0,3.018,6324.277,451540714.470,20.661,6.27,13.66,317.32,0.25
1991,3,10,1991,69,2448325.5,0,0,0,3.006,6299.321,449758949.408,20.589,6.19,13.73,317.33,0.26
1991,3,11,1991,70,2448326.5,0,0,0,2.995,6274.455,447983504.449,20.516,6.12,13.79,317.33,0.26
1991,3,12,1991,71,2448327.5,0,0,0,2.983,6249.674,446214218.089,20.444,6.04,13.86,317.33,0.26
1991,3,13,1991,72,2448328.5,0,0,0,2.971,6224.980,444451138.159,20.374,5.96,13.91,317.33,0.26
1991,3,14,1991,73,2448329.5,0,0,0,2.959,6200.370,442694019.647,20.303,5.89,13.97,317.34,0.27
1991,3,15,1991,74,2448330.5,0,0,0,2.948,6175.845,440943011.211,20.234,5.81,14.02,317.34,0.27
1991,3,16,1991,75,2448331.5,0,0,0,2.936,6151.405,439198038.999,20.163,5.74,14.07,317.34,0.27
1991,3,17,1991,76,2448332.5,0,0,0,2.924,6127.049,437459017.328,20.096,5.66,14.12,317.34,0.27
1991,3,18,1991,77,2448333.5,0,0,0,2.913,6102.774,435725843.043,20.028,5.58,14.16,317.34,0.28
1991,3,19,1991,78,2448334.5,0,0,0,2.901,6078.579,433998381.187,19.962,5.51,14.20,317.35,0.28
1991,3,20,1991,79,2448335.5,0,0,0,2.890,6054.465,432276670.684,19.897,5.43,14.24,317.35,0.28
1991,3,21,1991,80,2448336.5,0,0,0,2.878,6030.428,430560465.926,19.832,5.35,14.27,317.35,0.28
1991,3,22,1991,81,2448337.5,0,0,0,2.867,6006.470,428849927.510,19.767,5.28,14.30,317.35,0.29
1991,3,23,1991,82,2448338.5,0,0,0,2.855,5982.590,427144979.305,19.701,5.20,14.33,317.35,0.29
1991,3,24,1991,83,2448339.5,0,0,0,2.844,5958.789,425445603.304,19.639,5.12,14.35,317.35,0.29
1991,3,25,1991,84,2448340.5,0,0,0,2.833,5935.064,423751665.483,19.575,5.05,14.37,317.35,0.29
1991,3,26,1991,85,2448341.5,0,0,0,2.821,5911.413,422063076.980,19.514,4.97,14.39,317.35,0.30
1991,3,27,1991,86,2448342.5,0,0,0,2.810,5887.838,420379866.945,19.453,4.89,14.40,317.35,0.30
1991,3,28,1991,87,2448343.5,0,0,0,2.799,5864.335,418701800.135,19.392,4.81,14.41,317.35,0.30
1991,3,29,1991,88,2448344.5,0,0,0,2.788,5840.906,417029033.322,19.332,4.74,14.42,317.35,0.30
1991,3,30,1991,89,2448345.5,0,0,0,2.777,5817.551,415361479.040,19.270,4.66,14.42,317.35,0.31
1991,3,31,1991,90,2448346.5,0,0,0,2.765,5794.268,413699161.436,19.212,4.58,14.42,317.35,0.31
1991,4,1,1991,91,2448347.5,0,0,0,2.754,5771.057,412041898.668,19.152,4.50,14.42,317.35,0.31
1991,4,2,1991,92,2448348.5,0,0,0,2.743,5747.915,410389629.891,19.096,4.43,14.41,317.35,0.31
1991,4,3,1991,93,2448349.5,0,0,0,2.732,5724.843,408742350.844,19.039,4.35,14.40,317.35,0.32
1991,4,4,1991,94,2448350.5,0,0,0,2.721,5701.838,407099839.451,18.984,4.27,14.39,317.35,0.32
1991,4,5,1991,95,2448351.5,0,0,0,2.710,5678.902,405462229.256,18.927,4.20,14.37,317.34,0.32
1991,4,6,1991,96,2448352.5,0,0,0,2.699,5656.033,403829432.166,18.870,4.12,14.35,317.34,0.32
1991,4,7,1991,97,2448353.5,0,0,0,2.689,5633.232,402201522.267,18.816,4.04,14.33,317.34,0.32
1991,4,8,1991,98,2448354.5,0,0,0,2.678,5610.497,400578290.908,18.761,3.96,14.30,317.34,0.33
1991,4,9,1991,99,2448355.5,0,0,0,2.667,5587.828,398959724.858,18.709,3.89,14.27,317.34,0.33
1991,4,10,1991,100,2448356.5,0,0,0,2.656,5565.223,397345801.679,18.654,3.81,14.24,317.34,0.33
1991,4,11,1991,101,2448357.5,0,0,0,2.645,5542.681,395736338.340,18.603,3.73,14.20,317.33,0.33
1991,4,12,1991,102,2448358.5,0,0,0,2.635,5520.203,394131451.031,18.551,3.65,14.16,317.33,0.34
1991,4,13,1991,103,2448359.5,0,0,0,2.624,5497.788,392531063.788,18.497,3.58,14.12,317.33,0.34
1991,4,14,1991,104,2448360.5,0,0,0,2.613,5475.438,390935287.364,18.446,3.50,14.07,317.33,0.34
1991,4,15,1991,105,2448361.5,0,0,0,2.603,5453.148,389343886.760,18.394,3.42,14.03,317.33,0.34
1991,4,16,1991,106,2448362.5,0,0,0,2.592,5430.921,387756877.558,18.346,3.35,13.97,317.32,0.34
1991,4,17,1991,107,2448363.5,0,0,0,2.581,5408.754,386174198.028,18.295,3.27,13.92,317.32,0.35
1991,4,18,1991,108,2448364.5,0,0,0,2.571,5386.645,384595690.367,18.248,3.20,13.86,317.32,0.35
1991,4,19,1991,109,2448365.5,0,0,0,2.560,5364.596,383021420.525,18.199,3.12,13.80,317.32,0.35
1991,4,20,1991,110,2448366.5,0,0,0,2.550,5342.605,381451320.128,18.149,3.04,13.74,317.31,0.35
1991,4,21,1991,111,2448367.5,0,0,0,2.539,5320.675,379885518.826,18.102,2.97,13.67,317.31,0.35
1991,4,22,1991,112,2448368.5,0,0,0,2.529,5298.801,378323762.960,18.054,2.89,13.60,317.31,0.36
1991,4,23,1991,113,2448369.5,0,0,0,2.519,5276.984,376766097.312,18.008,2.82,13.53,317.30,0.36
1991,4,24,1991,114,2448370.5,0,0,0,2.508,5255.223,375212432.295,17.961,2.74,13.45,317.30,0.36
1991,4,25,1991,115,2448371.5,0,0,0,2.498,5233.517,373662661.805,17.918,2.67,13.38,317.30,0.36
1991,4,26,1991,116,2448372.5,0,0,0,2.487,5211.866,372116817.125,17.871,2.60,13.30,317.29,0.36
1991,4,27,1991,117,2448373.5,0,0,0,2.477,5190.269,370574861.212,17.826,2.52,13.21,317.29,0.37
1991,4,28,1991,118,2448374.5,0,0,0,2.467,5168.729,369036946.250,17.781,2.45,13.13,317.29,0.37
1991,4,29,1991,119,2448375.5,0,0,0,2.457,5147.243,367502825.129,17.736,2.38,13.04,317.28,0.37
1991,4,30,1991,120,2448376.5,0,0,0,2.446,5125.810,365972568.215,17.693,2.31,12.95,317.28,0.37
1991,5,1,1991,121,2448377.5,0,0,0,2.436,5104.430,364446059.035,17.648,2.24,12.85,317.28,0.38
1991,5,2,1991,122,2448378.5,0,0,0,2.426,5083.101,362923230.499,17.608,2.17,12.75,317.27,0.38
1991,5,3,1991,123,2448379.5,0,0,0,2.416,5061.823,361404054.982,17.565,2.10,12.66,317.27,0.38
1991,5,4,1991,124,2448380.5,0,0,0,2.406,5040.597,359888514.669,17.522,2.03,12.55,317.26,0.38
1991,5,5,1991,125,2448381.5,0,0,0,2.396,5019.423,358376753.602,17.480,1.96,12.45,317.26,0.38
1991,5,6,1991,126,2448382.5,0,0,0,2.386,4998.299,356868523.554,17.438,1.90,12.34,317.26,0.38
1991,5,7,1991,127,2448383.5,0,0,0,2.375,4977.225,355363897.335,17.398,1.84,12.23,317.25,0.39
1991,5,8,1991,128,2448384.5,0,0,0,2.365,4956.199,353862728.734,17.357,1.77,12.12,317.25,0.39
1991,5,9,1991,129,2448385.5,0,0,0,2.355,4935.222,352364994.116,17.320,1.71,12.01,317.24,0.39
1991,5,10,1991,130,2448386.5,0,0,0,2.345,4914.292,350870614.641,17.279,1.66,11.89,317.24,0.39
1991,5,11,1991,131,2448387.5,0,0,0,2.335,4893.409,349379608.480,17.241,1.60,11.77,317.23,0.39
1991,5,12,1991,132,2448388.5,0,0,0,2.326,4872.575,347892119.160,17.200,1.55,11.65,317.23,0.40
1991,5,13,1991,133,2448389.5,0,0,0,2.316,4851.788,346407932.008,17.162,1.49,11.53,317.23,0.40
1991,5,14,1991,134,2448390.5,0,0,0,2.306,4831.048,344927131.768,17.124,1.45,11.40,317.22,0.40
1991,5,15,1991,135,2448391.5,0,0,0,2.296,4810.353,343449565.784,17.085,1.40,11.27,317.22,0.40
1991,5,16,1991,136,2448392.5,0,0,0,2.286,4789.704,341975257.091,17.050,1.36,11.14,317.21,0.40
1991,5,17,1991,137,2448393.5,0,0,0,2.276,4769.098,340504079.866,17.012,1.32,11.01,317.21,0.41
1991,5,18,1991,138,2448394.5,0,0,0,2.266,4748.538,339036082.453,16.976,1.29,10.88,317.20,0.41
1991,5,19,1991,139,2448395.5,0,0,0,2.257,4728.023,337571385.283,16.938,1.26,10.74,317.20,0.41
1991,5,20,1991,140,2448396.5,0,0,0,2.247,4707.552,336109799.967,16.902,1.24,10.60,317.19,0.41
1991,5,21,1991,141,2448397.5,0,0,0,2.237,4687.126,334651392.233,16.866,1.22,10.46,317.19,0.41
1991,5,22,1991,142,2448398.5,0,0,0,2.227,4666.741,333195991.569,16.830,1.21,10.32,317.18,0.42
1991,5,23,1991,143,2448399.5,0,0,0,2.218,4646.400,331743642.715,16.798,1.21,10.17,317.18,0.42
1991,5,24,1991,144,2448400.5,0,0,0,2.208,4626.098,330294168.822,16.763,1.21,10.03,317.17,0.42
1991,5,25,1991,145,2448401.5,0,0,0,2.198,4605.838,328847642.216,16.729,1.21,9.88,317.17,0.42
1991,5,26,1991,146,2448402.5,0,0,0,2.189,4585.621,327404156.987,16.693,1.23,9.73,317.16,0.42
1991,5,27,1991,147,2448403.5,0,0,0,2.179,4565.444,325963571.862,16.661,1.24,9.57,317.16,0.42
1991,5,28,1991,148,2448404.5,0,0,0,2.169,4545.309,324525940.765,16.627,1.27,9.42,317.15,0.43
1991,5,29,1991,149,2448405.5,0,0,0,2.160,4525.212,323091104.364,16.594,1.29,9.26,317.14,0.43
1991,5,30,1991,150,2448406.5,0,0,0,2.150,4505.156,321659143.151,16.563,1.33,9.11,317.14,0.43
1991,5,31,1991,151,2448407.5,0,0,0,2.141,4485.138,320229853.996,16.530,1.36,8.95,317.13,0.43
1991,6,1,1991,152,2448408.5,0,0,0,2.131,4465.158,318803343.295,16.499,1.40,8.79,317.13,0.43
1991,6,2,1991,153,2448409.5,0,0,0,2.122,4445.218,317379680.282,16.465,1.45,8.63,317.12,0.44
1991,6,3,1991,154,2448410.5,0,0,0,2.112,4425.317,315958777.310,16.434,1.50,8.46,317.12,0.44
1991,6,4,1991,155,2448411.5,0,0,0,2.103,4405.455,314540658.893,16.402,1.55,8.30,317.11,0.44
1991,6,5,1991,156,2448412.5,0,0,0,2.093,4385.629,313125171.421,16.371,1.60,8.13,317.11,0.44
1991,6,6,1991,157,2448413.5,0,0,0,2.084,4365.842,311712401.469,16.342,1.66,7.96,317.10,0.44
1991,6,7,1991,158,2448414.5,0,0,0,2.074,4346.090,310302109.001,16.312,1.72,7.79,317.09,0.44
1991,6,8,1991,159,2448415.5,0,0,0,2.065,4326.373,308894407.813,16.283,1.78,7.62,317.09,0.45
1991,6,9,1991,160,2448416.5,0,0,0,2.055,4306.694,307489326.415,16.251,1.85,7.45,317.08,0.45
1991,6,10,1991,161,2448417.5,0,0,0,2.046,4287.050,306086825.082,16.223,1.91,7.27,317.08,0.45
1991,6,11,1991,162,2448418.5,0,0,0,2.037,4267.443,304686891.621,16.193,1.98,7.10,317.07,0.45
1991,6,12,1991,163,2448419.5,0,0,0,2.027,4247.870,303289393.522,16.164,2.04,6.92,317.07,0.45